,,,PA_Meas_PMT16A,,PR_Meas_QMR101_102,,RH_Meas_QMH101,,SR_Meas_QMS101,,TA_Meas_QMH101,,GenWind,,GenWind,
date,time,status,PA,status,PR,status,RH,status,SR,status,TA,status,DirAvg,status,SpdAvg,
2013-01-03, 00:00:05,VALID,1010.16,VALID,0,VALID,104,VALID,0,VALID,24.2202,VALID,89,VALID,0.685938,
2013-01-03, 00:01:05,VALID,1010.15,VALID,0,VALID,104,VALID,0,VALID,24.2007,VALID,88,VALID,0.857813,
2013-01-03, 00:02:05,VALID,1010.13,VALID,0,VALID,104,VALID,0,VALID,24.1422,VALID,88,VALID,0.690625,
2013-01-03, 00:03:05,VALID,1010.13,VALID,0,VALID,104,VALID,0,VALID,24.222,VALID,97,VALID,0.8125,
2013-01-03, 00:04:05,VALID,1010.08,VALID,0,VALID,104,VALID,0,VALID,24.1422,VALID,88,VALID,0.689062,
2013-01-03, 00:05:05,VALID,1010.07,VALID,0,VALID,104,VALID,0,VALID,24.1812,VALID,69,VALID,0.714453,
2013-01-03, 00:06:05,VALID,1010.06,VALID,0,VALID,104,VALID,0,VALID,24.2202,VALID,69,VALID,0.314453,
2013-01-03, 00:07:05,VALID,1010.03,VALID,0,VALID,104,VALID,0,VALID,24.1617,VALID,69,VALID,0.588672,
2013-01-03, 00:08:05,VALID,1010.03,VALID,0,VALID,104,VALID,0,VALID,24.1404,VALID,69,VALID,0.0917969,
2013-01-03, 00:09:05,VALID,1010,VALID,0,VALID,104,VALID,0,VALID,24.1812,VALID,70,VALID,0.471875,
2013-01-03, 00:10:05,VALID,1009.97,VALID,0,VALID,104,VALID,0,VALID,24.2007,VALID,70,VALID,0.328906,
2013-01-03, 00:11:05,VALID,1009.95,VALID,0,VALID,104,VALID,0,VALID,24.2591,VALID,70,VALID,0.0597656,
2013-01-03, 00:12:05,VALID,1009.93,VALID,0,VALID,104,VALID,0,VALID,24.1793,VALID,70,VALID,0,
2013-01-03, 00:13:05,VALID,1009.91,VALID,0,VALID,104,VALID,0,VALID,24.2591,VALID,70,VALID,0.144141,
2013-01-03, 00:14:05,VALID,1009.92,VALID,0,VALID,104,VALID,0,VALID,24.2396,VALID,70,VALID,0.284375,
2013-01-03, 00:15:05,VALID,1009.88,VALID,0,VALID,104,VALID,0,VALID,24.1812,VALID,70,VALID,0.414453,
2013-01-03, 00:16:05,VALID,1009.88,VALID,0,VALID,104,VALID,0,VALID,24.2007,VALID,70,VALID,0.468359,
2013-01-03, 00:17:05,VALID,1009.86,VALID,0,VALID,104,VALID,0,VALID,24.2007,VALID,70,VALID,0.443359,
2013-01-03, 00:18:05,VALID,1009.88,VALID,0,VALID,104,VALID,0,VALID,24.2415,VALID,70,VALID,0.218359,
2013-01-03, 00:19:05,VALID,1009.88,VALID,0,VALID,104,VALID,0,VALID,24.2591,VALID,70,VALID,0.618359,
2013-01-03, 00:20:05,VALID,1009.88,VALID,0,VALID,104,VALID,0,VALID,24.3,VALID,74,VALID,0.587891,
2013-01-03, 00:21:05,VALID,1009.88,VALID,0,VALID,104,VALID,0,VALID,24.2786,VALID,95,VALID,0.738281,
2013-01-03, 00:22:05,VALID,1009.87,VALID,0,VALID,104,VALID,0,VALID,24.1812,VALID,117,VALID,0.38125,
2013-01-03, 00:23:05,VALID,1009.85,VALID,0,VALID,104,VALID,0,VALID,24.2202,VALID,118,VALID,0.214453,
2013-01-03, 00:24:05,VALID,1009.87,VALID,0,VALID,104,VALID,0,VALID,24.3352,VALID,118,VALID,0.392188,
2013-01-03, 00:25:05,VALID,1009.84,VALID,0,VALID,104,VALID,0,VALID,24.2591,VALID,118,VALID,0.382422,
2013-01-03, 00:26:05,VALID,1009.83,VALID,0,VALID,104,VALID,0,VALID,24.1422,VALID,118,VALID,0.405859,
2013-01-03, 00:27:05,VALID,1009.81,VALID,0,VALID,104,VALID,0,VALID,24.2007,VALID,118,VALID,0.354297,
2013-01-03, 00:28:05,VALID,1009.8,VALID,0,VALID,104,VALID,0,VALID,24.2396,VALID,118,VALID,0.210547,
2013-01-03, 00:29:05,VALID,1009.78,VALID,0,VALID,104,VALID,0,VALID,24.2768,VALID,118,VALID,0.0992187,
2013-01-03, 00:30:05,VALID,1009.77,VALID,0,VALID,104,VALID,0,VALID,24.2007,VALID,118,VALID,0,
2013-01-03, 00:31:05,VALID,1009.77,VALID,0,VALID,104,VALID,0,VALID,24.2396,VALID,118,VALID,0,
2013-01-03, 00:32:05,VALID,1009.73,VALID,0,VALID,104,VALID,0,VALID,24.2786,VALID,118,VALID,0,
2013-01-03, 00:33:04,VALID,1009.73,VALID,0,VALID,104,VALID,0,VALID,24.2007,VALID,118,VALID,0,
2013-01-03, 00:34:04,VALID,1009.73,VALID,0,VALID,104,VALID,0,VALID,24.2202,VALID,117,VALID,0,
2013-01-03, 00:35:04,VALID,1009.76,VALID,0,VALID,104,VALID,0,VALID,24.2396,VALID,115,VALID,0,
2013-01-03, 00:36:04,VALID,1009.7,VALID,0,VALID,104,VALID,0,VALID,24.2396,VALID,115,VALID,0,
2013-01-03, 00:37:04,VALID,1009.73,VALID,0,VALID,104,VALID,0,VALID,24.1812,VALID,94,VALID,0,
2013-01-03, 00:38:04,VALID,1009.71,VALID,0,VALID,104,VALID,0,VALID,24.2396,VALID,90,VALID,0,
2013-01-03, 00:39:04,VALID,1009.69,VALID,0,VALID,104,VALID,0,VALID,24.2007,VALID,89,VALID,0,
2013-01-03, 00:40:04,VALID,1009.67,VALID,0,VALID,104,VALID,0,VALID,24.1617,VALID,88,VALID,0.875781,
2013-01-03, 00:41:04,VALID,1009.65,VALID,0,VALID,104,VALID,0,VALID,24.1812,VALID,88,VALID,1.03359,
2013-01-03, 00:42:04,VALID,1009.65,VALID,0,VALID,104,VALID,0,VALID,24.2007,VALID,96,VALID,0.808984,
2013-01-03, 00:43:04,VALID,1009.62,VALID,0,VALID,104,VALID,0,VALID,24.1227,VALID,116,VALID,1.00195,
2013-01-03, 00:44:04,VALID,1009.63,VALID,0,VALID,104,VALID,0,VALID,24.1812,VALID,98,VALID,0.842969,
2013-01-03, 00:45:04,VALID,1009.63,VALID,0,VALID,104,VALID,0,VALID,24.1617,VALID,98,VALID,0.361719,
2013-01-03, 00:46:04,VALID,1009.63,VALID,0,VALID,104,VALID,0,VALID,24.1422,VALID,97,VALID,0.883203,
2013-01-03, 00:47:04,VALID,1009.61,VALID,0,VALID,104,VALID,0,VALID,24.1227,VALID,99,VALID,0.819531,
2013-01-03, 00:48:04,VALID,1009.59,VALID,0,VALID,104,VALID,0,VALID,24.1617,VALID,110,VALID,0.646484,
2013-01-03, 00:49:04,VALID,1009.61,VALID,0,VALID,104,VALID,0,VALID,24.1422,VALID,72,VALID,0.810938,
2013-01-03, 00:50:04,VALID,1009.59,VALID,0,VALID,104,VALID,0,VALID,24.1422,VALID,67,VALID,0.767969,
2013-01-03, 00:51:04,VALID,1009.6,VALID,0,VALID,104,VALID,0,VALID,24.1635,VALID,89,VALID,0.977734,
2013-01-03, 00:52:04,VALID,1009.61,VALID,0,VALID,104,VALID,0,VALID,24.0837,VALID,88,VALID,1.10547,
2013-01-03, 00:53:04,VALID,1009.59,VALID,0,VALID,104,VALID,0,VALID,24.1032,VALID,40,VALID,0.7375,
2013-01-03, 00:54:04,VALID,1009.61,VALID,0,VALID,104,VALID,0,VALID,24.0058,VALID,74,VALID,1.12734,
2013-01-03, 00:55:04,VALID,1009.58,VALID,0,VALID,104,VALID,0,VALID,24.0058,VALID,74,VALID,1.22891,
2013-01-03, 00:56:04,VALID,1009.61,VALID,0,VALID,104,VALID,0,VALID,24.0643,VALID,77,VALID,1.00352,
2013-01-03, 00:57:04,VALID,1009.62,VALID,0,VALID,104,VALID,0,VALID,24.183,VALID,91,VALID,0.54375,
2013-01-03, 00:58:04,VALID,1009.62,VALID,0,VALID,104,VALID,0,VALID,24.0643,VALID,90,VALID,1.18242,
2013-01-03, 00:59:04,VALID,1009.59,VALID,0,VALID,104,VALID,0,VALID,24.1245,VALID,80,VALID,0.494531,
2013-01-03, 01:00:04,VALID,1009.59,VALID,0,VALID,104,VALID,0,VALID,24.1051,VALID,80,VALID,0.492969,
2013-01-03, 01:01:04,VALID,1009.58,VALID,0,VALID,104,VALID,0,VALID,24.1209,VALID,80,VALID,0.234766,
2013-01-03, 01:02:04,VALID,1009.58,VALID,0,VALID,104,VALID,0.112112,VALID,24.1404,VALID,80,VALID,0.594141,
2013-01-03, 01:03:04,VALID,1009.57,VALID,0,VALID,104,VALID,0.112112,VALID,24.0411,VALID,78,VALID,0.616797,
2013-01-03, 01:04:04,VALID,1009.55,VALID,0,VALID,104,VALID,0.112112,VALID,24.0235,VALID,77,VALID,0.590625,
2013-01-03, 01:05:04,VALID,1009.54,VALID,0,VALID,104,VALID,0.112112,VALID,24.0235,VALID,57,VALID,0.476563,
2013-01-03, 01:06:04,VALID,1009.53,VALID,0,VALID,104,VALID,0,VALID,23.9845,VALID,57,VALID,0.641406,
2013-01-03, 01:07:04,VALID,1009.54,VALID,0,VALID,104,VALID,0.112112,VALID,23.965,VALID,57,VALID,0.485156,
2013-01-03, 01:08:04,VALID,1009.52,VALID,0,VALID,104,VALID,0.112112,VALID,23.9065,VALID,63,VALID,0.751172,
2013-01-03, 01:09:04,VALID,1009.54,VALID,0,VALID,104,VALID,0.112112,VALID,23.9827,VALID,63,VALID,0.546484,
2013-01-03, 01:10:04,VALID,1009.57,VALID,0,VALID,104,VALID,0.112112,VALID,23.9845,VALID,63,VALID,0.394141,
2013-01-03, 01:11:04,VALID,1009.56,VALID,0,VALID,104,VALID,0.112112,VALID,23.9827,VALID,63,VALID,0.311719,
2013-01-03, 01:12:04,VALID,1009.54,VALID,0,VALID,104,VALID,0.112112,VALID,24.004,VALID,63,VALID,0.225391,
2013-01-03, 01:13:04,VALID,1009.53,VALID,0,VALID,104,VALID,0.112112,VALID,24.1014,VALID,63,VALID,0.325391,
2013-01-03, 01:14:04,VALID,1009.5,VALID,0,VALID,104,VALID,0.112112,VALID,23.926,VALID,62,VALID,0.257813,
2013-01-03, 01:15:04,VALID,1009.53,VALID,0,VALID,104,VALID,0.112112,VALID,24.0429,VALID,63,VALID,0.3375,
2013-01-03, 01:16:04,VALID,1009.5,VALID,0,VALID,104,VALID,0,VALID,23.926,VALID,63,VALID,0.567187,
2013-01-03, 01:17:04,VALID,1009.49,VALID,0,VALID,104,VALID,0,VALID,24.0235,VALID,62,VALID,0.448438,
2013-01-03, 01:18:04,VALID,1009.5,VALID,0,VALID,104,VALID,0,VALID,24.0058,VALID,62,VALID,0.411719,
2013-01-03, 01:19:04,VALID,1009.48,VALID,0,VALID,104,VALID,0,VALID,23.9863,VALID,62,VALID,0.491797,
2013-01-03, 01:20:04,VALID,1009.48,VALID,0,VALID,104,VALID,0,VALID,23.9278,VALID,62,VALID,0.323438,
2013-01-03, 01:21:04,VALID,1009.51,VALID,0,VALID,104,VALID,0,VALID,24.0253,VALID,62,VALID,0.232812,
2013-01-03, 01:22:04,VALID,1009.47,VALID,0,VALID,104,VALID,0,VALID,24.0058,VALID,62,VALID,0.423047,
2013-01-03, 01:23:04,VALID,1009.52,VALID,0,VALID,104,VALID,0,VALID,23.9668,VALID,62,VALID,0.344141,
2013-01-03, 01:24:04,VALID,1009.5,VALID,0,VALID,104,VALID,0,VALID,24.0624,VALID,62,VALID,0.0140625,
2013-01-03, 01:25:04,VALID,1009.52,VALID,0,VALID,104,VALID,0,VALID,23.9845,VALID,62,VALID,0,
2013-01-03, 01:26:04,VALID,1009.5,VALID,0,VALID,104,VALID,0,VALID,24.0643,VALID,62,VALID,0.184766,
2013-01-03, 01:27:04,VALID,1009.5,VALID,0,VALID,104,VALID,0,VALID,24.0837,VALID,62,VALID,0.258984,
2013-01-03, 01:28:04,VALID,1009.49,VALID,0,VALID,104,VALID,0,VALID,24.0448,VALID,62,VALID,0.377734,
2013-01-03, 01:29:04,VALID,1009.48,VALID,0,VALID,104,VALID,0,VALID,24.0448,VALID,62,VALID,0.157422,
2013-01-03, 01:30:04,VALID,1009.5,VALID,0,VALID,104,VALID,0,VALID,24.1422,VALID,62,VALID,0.210156,
2013-01-03, 01:31:04,VALID,1009.44,VALID,0,VALID,104,VALID,0,VALID,24.0253,VALID,62,VALID,0.217578,
2013-01-03, 01:32:04,VALID,1009.44,VALID,0,VALID,104,VALID,0,VALID,24.1032,VALID,62,VALID,0.263281,
2013-01-03, 01:33:04,VALID,1009.41,VALID,0,VALID,104,VALID,0,VALID,24.0837,VALID,62,VALID,0.573438,
2013-01-03, 01:34:04,VALID,1009.42,VALID,0,VALID,104,VALID,0,VALID,23.9845,VALID,62,VALID,0.355078,
2013-01-03, 01:35:04,VALID,1009.39,VALID,0,VALID,104,VALID,0,VALID,24.0643,VALID,62,VALID,0.144922,
2013-01-03, 01:36:04,VALID,1009.41,VALID,0,VALID,104,VALID,0,VALID,24.0058,VALID,62,VALID,0.0328125,
2013-01-03, 01:37:04,VALID,1009.41,VALID,0,VALID,104,VALID,0,VALID,24.0448,VALID,62,VALID,0.466797,
2013-01-03, 01:38:04,VALID,1009.4,VALID,0,VALID,104,VALID,0,VALID,24.0448,VALID,62,VALID,0.341016,
2013-01-03, 01:39:04,VALID,1009.37,VALID,0,VALID,104,VALID,0,VALID,24.0253,VALID,71,VALID,0.980859,
2013-01-03, 01:40:04,VALID,1009.35,VALID,0,VALID,104,VALID,0,VALID,23.9668,VALID,72,VALID,0.844922,
2013-01-03, 01:41:04,VALID,1009.34,VALID,0,VALID,104,VALID,0,VALID,23.9863,VALID,72,VALID,0.827734,
2013-01-03, 01:42:04,VALID,1009.31,VALID,0,VALID,104,VALID,0,VALID,23.9863,VALID,70,VALID,0.912891,
2013-01-03, 01:43:04,VALID,1009.32,VALID,0,VALID,104,VALID,0,VALID,24.0253,VALID,71,VALID,0.648047,
2013-01-03, 01:44:04,VALID,1009.27,VALID,0,VALID,104,VALID,0,VALID,24.0429,VALID,75,VALID,0.790234,
2013-01-03, 01:45:04,VALID,1009.27,VALID,0,VALID,104,VALID,0,VALID,24.0058,VALID,77,VALID,0.764063,
2013-01-03, 01:46:04,VALID,1009.26,VALID,0,VALID,104,VALID,0,VALID,23.965,VALID,76,VALID,0.519531,
2013-01-03, 01:47:04,VALID,1009.24,VALID,0,VALID,104,VALID,0.112112,VALID,23.9845,VALID,83,VALID,0.991797,
2013-01-03, 01:48:04,VALID,1009.24,VALID,0,VALID,104,VALID,0,VALID,23.9473,VALID,83,VALID,0.65,
2013-01-03, 01:49:04,VALID,1009.19,VALID,0,VALID,104,VALID,0,VALID,23.9668,VALID,83,VALID,0.430859,
2013-01-03, 01:50:04,VALID,1009.17,VALID,0,VALID,104,VALID,0,VALID,24.0253,VALID,77,VALID,0.700781,
2013-01-03, 01:51:04,VALID,1009.14,VALID,0,VALID,104,VALID,0,VALID,24.0058,VALID,60,VALID,0.732813,
2013-01-03, 01:52:04,VALID,1009.12,VALID,0,VALID,104,VALID,0,VALID,23.9084,VALID,56,VALID,1.0875,
2013-01-03, 01:53:04,VALID,1009.09,VALID,0,VALID,104,VALID,0,VALID,23.9473,VALID,52,VALID,0.832422,
2013-01-03, 01:54:04,VALID,1009.09,VALID,0,VALID,104,VALID,0,VALID,23.9278,VALID,52,VALID,0.546875,
2013-01-03, 01:55:04,VALID,1009.09,VALID,0,VALID,104,VALID,0,VALID,24.0058,VALID,75,VALID,0.883984,
2013-01-03, 01:56:04,VALID,1009.1,VALID,0,VALID,104,VALID,0,VALID,23.8499,VALID,84,VALID,0.576563,
2013-01-03, 01:57:04,VALID,1009.12,VALID,0,VALID,104,VALID,0,VALID,23.8694,VALID,84,VALID,0.595312,
2013-01-03, 01:58:04,VALID,1009.11,VALID,0,VALID,104,VALID,0,VALID,23.9278,VALID,88,VALID,0.925,
2013-01-03, 01:59:04,VALID,1009.11,VALID,0,VALID,104,VALID,0,VALID,23.8889,VALID,84,VALID,0.846484,
2013-01-03, 02:00:04,VALID,1009.12,VALID,0,VALID,104,VALID,0,VALID,23.8694,VALID,62,VALID,0.596875,
2013-01-03, 02:01:04,VALID,1009.09,VALID,0,VALID,104,VALID,0,VALID,23.9278,VALID,62,VALID,0.455078,
2013-01-03, 02:02:04,VALID,1009.07,VALID,0,VALID,104,VALID,0,VALID,23.8322,VALID,62,VALID,0.19375,
2013-01-03, 02:03:04,VALID,1009.07,VALID,0,VALID,104,VALID,0,VALID,23.9084,VALID,61,VALID,0.232031,
2013-01-03, 02:04:04,VALID,1009.05,VALID,0,VALID,104,VALID,0,VALID,23.8889,VALID,61,VALID,0.5,
2013-01-03, 02:05:04,VALID,1009.04,VALID,0,VALID,104,VALID,0,VALID,23.8499,VALID,61,VALID,0.506641,
2013-01-03, 02:06:04,VALID,1009.05,VALID,0,VALID,104,VALID,0,VALID,23.8109,VALID,62,VALID,0.312891,
2013-01-03, 02:07:04,VALID,1009.02,VALID,0,VALID,104,VALID,0,VALID,23.8889,VALID,61,VALID,0.645703,
2013-01-03, 02:08:04,VALID,1009,VALID,0,VALID,104,VALID,0,VALID,23.8694,VALID,57,VALID,0.602344,
2013-01-03, 02:09:04,VALID,1008.95,VALID,0,VALID,104,VALID,0,VALID,23.8304,VALID,58,VALID,0.646094,
2013-01-03, 02:10:04,VALID,1008.94,VALID,0,VALID,104,VALID,0,VALID,23.8304,VALID,61,VALID,0.357422,
2013-01-03, 02:11:04,VALID,1008.93,VALID,0,VALID,104,VALID,0,VALID,23.8694,VALID,61,VALID,0.475391,
2013-01-03, 02:12:04,VALID,1008.93,VALID,0,VALID,104,VALID,0,VALID,23.8694,VALID,61,VALID,0.247266,
2013-01-03, 02:13:04,VALID,1008.94,VALID,0,VALID,104,VALID,0,VALID,23.8694,VALID,61,VALID,0.0238281,
2013-01-03, 02:14:04,VALID,1008.91,VALID,0,VALID,104,VALID,0,VALID,23.8304,VALID,58,VALID,0.500391,
2013-01-03, 02:15:04,VALID,1008.91,VALID,0,VALID,104,VALID,0,VALID,23.8499,VALID,58,VALID,0.612891,
2013-01-03, 02:16:04,VALID,1008.88,VALID,0,VALID,104,VALID,0,VALID,23.8694,VALID,58,VALID,0.473828,
2013-01-03, 02:17:04,VALID,1008.9,VALID,0,VALID,104,VALID,0,VALID,23.8499,VALID,52,VALID,0.469531,
2013-01-03, 02:18:04,VALID,1008.89,VALID,0,VALID,104,VALID,0,VALID,23.8109,VALID,34,VALID,0.33125,
2013-01-03, 02:19:04,VALID,1008.89,VALID,0,VALID,104,VALID,0,VALID,23.8499,VALID,46,VALID,1.05664,
2013-01-03, 02:20:04,VALID,1008.89,VALID,0,VALID,104,VALID,0,VALID,23.7914,VALID,55,VALID,0.749219,
2013-01-03, 02:21:04,VALID,1008.88,VALID,0,VALID,104,VALID,0.112112,VALID,23.8109,VALID,33,VALID,0.620313,
2013-01-03, 02:22:04,VALID,1008.93,VALID,0,VALID,104,VALID,0,VALID,23.7896,VALID,29,VALID,0.553906,
2013-01-03, 02:23:04,VALID,1008.93,VALID,0,VALID,104,VALID,0,VALID,23.7525,VALID,23,VALID,0.966016,
2013-01-03, 02:24:04,VALID,1008.94,VALID,0,VALID,104,VALID,0,VALID,23.7914,VALID,35,VALID,0.515625,
2013-01-03, 02:25:04,VALID,1008.97,VALID,0,VALID,104,VALID,0,VALID,23.7525,VALID,33,VALID,0.511328,
2013-01-03, 02:26:04,VALID,1008.94,VALID,0,VALID,104,VALID,0,VALID,23.8694,VALID,33,VALID,0.690625,
2013-01-03, 02:27:04,VALID,1008.96,VALID,0,VALID,104,VALID,0,VALID,23.7914,VALID,33,VALID,0.309766,
2013-01-03, 02:28:04,VALID,1008.97,VALID,0,VALID,104,VALID,0,VALID,23.7701,VALID,33,VALID,0.362109,
2013-01-03, 02:29:04,VALID,1009,VALID,0,VALID,104,VALID,0,VALID,23.6922,VALID,32,VALID,0.821875,
2013-01-03, 02:30:04,VALID,1008.97,VALID,0,VALID,104,VALID,0,VALID,23.7135,VALID,32,VALID,0.480859,
2013-01-03, 02:31:04,VALID,1009.03,VALID,0,VALID,104,VALID,0,VALID,23.772,VALID,32,VALID,0.243359,
2013-01-03, 02:32:04,VALID,1009,VALID,0,VALID,104,VALID,0,VALID,23.7525,VALID,34,VALID,0.719922,
2013-01-03, 02:33:04,VALID,1009,VALID,0,VALID,104,VALID,0,VALID,23.7117,VALID,29,VALID,1.10547,
2013-01-03, 02:34:04,VALID,1009.02,VALID,0,VALID,104,VALID,0,VALID,23.7135,VALID,43,VALID,0.784766,
2013-01-03, 02:35:04,VALID,1009.01,VALID,0,VALID,104,VALID,0,VALID,23.733,VALID,43,VALID,1.11055,
2013-01-03, 02:36:04,VALID,1008.99,VALID,0,VALID,104,VALID,0,VALID,23.733,VALID,20,VALID,0.736328,
2013-01-03, 02:37:04,VALID,1008.99,VALID,0,VALID,104,VALID,0,VALID,23.733,VALID,17,VALID,1.08789,
2013-01-03, 02:38:04,VALID,1008.99,VALID,0,VALID,104,VALID,0,VALID,23.733,VALID,12,VALID,0.452734,
2013-01-03, 02:39:04,VALID,1008.97,VALID,0,VALID,104,VALID,0,VALID,23.7135,VALID,13,VALID,0.817578,
2013-01-03, 02:40:04,VALID,1008.93,VALID,0,VALID,104,VALID,0,VALID,23.6745,VALID,50,VALID,0.885547,
2013-01-03, 02:41:04,VALID,1008.94,VALID,0,VALID,104,VALID,0,VALID,23.6745,VALID,45,VALID,0.677734,
2013-01-03, 02:42:04,VALID,1008.94,VALID,0,VALID,104,VALID,0,VALID,23.7135,VALID,47,VALID,0.971875,
2013-01-03, 02:43:04,VALID,1008.95,VALID,0,VALID,104,VALID,0,VALID,23.7135,VALID,35,VALID,0.523438,
2013-01-03, 02:44:04,VALID,1008.98,VALID,0,VALID,104,VALID,0,VALID,23.7135,VALID,41,VALID,0.625391,
2013-01-03, 02:45:04,VALID,1008.98,VALID,0,VALID,104,VALID,0,VALID,23.6745,VALID,34,VALID,0.715625,
2013-01-03, 02:46:04,VALID,1008.98,VALID,0,VALID,104,VALID,0.112112,VALID,23.6532,VALID,42,VALID,0.690625,
2013-01-03, 02:47:04,VALID,1008.96,VALID,0,VALID,104,VALID,0.112112,VALID,23.6727,VALID,41,VALID,0.629297,
2013-01-03, 02:48:04,VALID,1008.94,VALID,0,VALID,104,VALID,0.112112,VALID,23.6727,VALID,40,VALID,0.252734,
2013-01-03, 02:49:04,VALID,1008.94,VALID,0,VALID,104,VALID,0.112112,VALID,23.7117,VALID,32,VALID,0.934766,
2013-01-03, 02:50:04,VALID,1008.89,VALID,0,VALID,104,VALID,0.112112,VALID,23.6532,VALID,29,VALID,0.517578,
2013-01-03, 02:51:04,VALID,1008.88,VALID,0,VALID,104,VALID,0.112112,VALID,23.6922,VALID,29,VALID,0.549609,
2013-01-03, 02:52:04,VALID,1008.88,VALID,0,VALID,104,VALID,0.112112,VALID,23.6532,VALID,29,VALID,0.533594,
2013-01-03, 02:53:04,VALID,1008.89,VALID,0,VALID,104,VALID,0.112112,VALID,23.6922,VALID,29,VALID,0.180078,
2013-01-03, 02:54:04,VALID,1008.9,VALID,0,VALID,104,VALID,0,VALID,23.7312,VALID,28,VALID,0.242188,
2013-01-03, 02:55:04,VALID,1008.89,VALID,0,VALID,104,VALID,0,VALID,23.7312,VALID,28,VALID,0.00585938,
2013-01-03, 02:56:04,VALID,1008.87,VALID,0,VALID,104,VALID,0.112112,VALID,23.7701,VALID,28,VALID,0,
2013-01-03, 02:57:04,VALID,1008.92,VALID,0,VALID,104,VALID,0.112112,VALID,23.6532,VALID,29,VALID,0,
2013-01-03, 02:58:04,VALID,1008.96,VALID,0,VALID,104,VALID,0.112112,VALID,23.7312,VALID,28,VALID,0,
2013-01-03, 02:59:04,VALID,1008.97,VALID,0,VALID,104,VALID,0.112112,VALID,23.7312,VALID,29,VALID,0.45,
2013-01-03, 03:00:04,VALID,1008.94,VALID,0,VALID,104,VALID,0.112112,VALID,23.7489,VALID,29,VALID,0.450781,
2013-01-03, 03:01:04,VALID,1008.95,VALID,0,VALID,104,VALID,0,VALID,23.733,VALID,29,VALID,0.230469,
2013-01-03, 03:02:04,VALID,1008.92,VALID,0,VALID,104,VALID,0,VALID,23.7525,VALID,29,VALID,0.415625,
2013-01-03, 03:03:04,VALID,1008.92,VALID,0,VALID,104,VALID,0,VALID,23.772,VALID,29,VALID,0.342578,
2013-01-03, 03:04:04,VALID,1008.89,VALID,0,VALID,104,VALID,0,VALID,23.7914,VALID,29,VALID,0.308594,
2013-01-03, 03:05:04,VALID,1008.87,VALID,0,VALID,104,VALID,0,VALID,23.7543,VALID,29,VALID,0,
2013-01-03, 03:06:04,VALID,1008.88,VALID,0,VALID,104,VALID,0,VALID,23.7525,VALID,29,VALID,0,
2013-01-03, 03:07:04,VALID,1008.89,VALID,0,VALID,104,VALID,0,VALID,23.7525,VALID,29,VALID,0.406641,
2013-01-03, 03:08:04,VALID,1008.9,VALID,0,VALID,104,VALID,0,VALID,23.7525,VALID,30,VALID,0.655859,
2013-01-03, 03:09:04,VALID,1008.93,VALID,0,VALID,104,VALID,0,VALID,23.772,VALID,30,VALID,0.401563,
2013-01-03, 03:10:04,VALID,1008.93,VALID,0,VALID,104,VALID,0,VALID,23.733,VALID,30,VALID,0.372656,
2013-01-03, 03:11:04,VALID,1008.95,VALID,0,VALID,104,VALID,0,VALID,23.7525,VALID,30,VALID,0.251172,
2013-01-03, 03:12:04,VALID,1008.96,VALID,0,VALID,104,VALID,0,VALID,23.7543,VALID,30,VALID,0.364844,
2013-01-03, 03:13:04,VALID,1008.97,VALID,0,VALID,104,VALID,0,VALID,23.733,VALID,30,VALID,0.258594,
2013-01-03, 03:14:04,VALID,1008.98,VALID,0,VALID,104,VALID,0,VALID,23.7914,VALID,30,VALID,0.357812,
2013-01-03, 03:15:04,VALID,1009.02,VALID,0,VALID,104,VALID,0,VALID,23.772,VALID,30,VALID,0.702734,
2013-01-03, 03:16:04,VALID,1008.98,VALID,0,VALID,104,VALID,0,VALID,23.7525,VALID,30,VALID,0.479688,
2013-01-03, 03:17:04,VALID,1009.01,VALID,0,VALID,104,VALID,0,VALID,23.733,VALID,29,VALID,0.619141,
2013-01-03, 03:18:04,VALID,1009,VALID,0,VALID,104,VALID,0,VALID,23.733,VALID,29,VALID,0.571875,
2013-01-03, 03:19:04,VALID,1008.97,VALID,0,VALID,104,VALID,0,VALID,23.8091,VALID,29,VALID,0.427734,
2013-01-03, 03:20:04,VALID,1008.98,VALID,0,VALID,104,VALID,0,VALID,23.7525,VALID,29,VALID,0.828516,
2013-01-03, 03:21:04,VALID,1008.99,VALID,0,VALID,104,VALID,0.112112,VALID,23.7525,VALID,23,VALID,1.1082,
2013-01-03, 03:22:04,VALID,1009.01,VALID,0,VALID,104,VALID,0,VALID,23.772,VALID,35,VALID,0.528906,
2013-01-03, 03:23:04,VALID,1008.97,VALID,0,VALID,104,VALID,0.112112,VALID,23.772,VALID,58,VALID,0.644531,
2013-01-03, 03:24:04,VALID,1008.98,VALID,0,VALID,104,VALID,0,VALID,23.7135,VALID,42,VALID,0.546484,
2013-01-03, 03:25:04,VALID,1008.99,VALID,0,VALID,104,VALID,0,VALID,23.733,VALID,53,VALID,0.665234,
2013-01-03, 03:26:04,VALID,1008.99,VALID,0,VALID,104,VALID,0.112112,VALID,23.7135,VALID,65,VALID,0.830469,
2013-01-03, 03:27:04,VALID,1008.96,VALID,0,VALID,104,VALID,0,VALID,23.733,VALID,42,VALID,0.851953,
2013-01-03, 03:28:04,VALID,1008.96,VALID,0,VALID,104,VALID,0,VALID,23.7525,VALID,42,VALID,0.497266,
2013-01-03, 03:29:04,VALID,1008.95,VALID,0,VALID,104,VALID,0,VALID,23.733,VALID,67,VALID,0.629297,
2013-01-03, 03:30:04,VALID,1008.95,VALID,0,VALID,104,VALID,0,VALID,23.733,VALID,65,VALID,0.696875,
2013-01-03, 03:31:04,VALID,1008.9,VALID,0,VALID,104,VALID,0,VALID,23.7525,VALID,87,VALID,1.06172,
2013-01-03, 03:32:04,VALID,1008.89,VALID,0,VALID,104,VALID,0,VALID,23.7914,VALID,58,VALID,0.730078,
2013-01-03, 03:33:04,VALID,1008.89,VALID,0,VALID,104,VALID,0,VALID,23.8109,VALID,58,VALID,0.142188,
2013-01-03, 03:34:04,VALID,1008.83,VALID,0,VALID,104,VALID,0,VALID,23.7543,VALID,75,VALID,0.936328,
2013-01-03, 03:35:04,VALID,1008.87,VALID,0,VALID,104,VALID,0,VALID,23.733,VALID,74,VALID,1.40664,
2013-01-03, 03:36:04,VALID,1008.87,VALID,0,VALID,104,VALID,0,VALID,23.7117,VALID,50,VALID,0.783203,
2013-01-03, 03:37:04,VALID,1008.89,VALID,0,VALID,104,VALID,0,VALID,23.7507,VALID,50,VALID,0.458203,
2013-01-03, 03:38:04,VALID,1008.9,VALID,0,VALID,104,VALID,0,VALID,23.7914,VALID,44,VALID,0.765625,
2013-01-03, 03:39:04,VALID,1008.89,VALID,0,VALID,104,VALID,0,VALID,23.7135,VALID,58,VALID,1.37656,
2013-01-03, 03:40:04,VALID,1008.9,VALID,0,VALID,104,VALID,0,VALID,23.772,VALID,60,VALID,0.301953,
2013-01-03, 03:41:04,VALID,1008.9,VALID,0,VALID,104,VALID,0,VALID,23.694,VALID,55,VALID,0.329688,
2013-01-03, 03:42:04,VALID,1008.9,VALID,0,VALID,104,VALID,0,VALID,23.6922,VALID,47,VALID,0.400391,
2013-01-03, 03:43:04,VALID,1008.91,VALID,0,VALID,104,VALID,0,VALID,23.733,VALID,47,VALID,0.624609,
2013-01-03, 03:44:04,VALID,1008.94,VALID,0,VALID,104,VALID,0,VALID,23.7135,VALID,47,VALID,0.129688,
2013-01-03, 03:45:04,VALID,1008.95,VALID,0,VALID,104,VALID,0,VALID,23.6727,VALID,47,VALID,0.0078125,
2013-01-03, 03:46:04,VALID,1008.91,VALID,0,VALID,104,VALID,0,VALID,23.694,VALID,47,VALID,0.0519531,
2013-01-03, 03:47:04,VALID,1008.93,VALID,0,VALID,104,VALID,0,VALID,23.7135,VALID,47,VALID,0.511719,
2013-01-03, 03:48:04,VALID,1008.9,VALID,0,VALID,104,VALID,0,VALID,23.733,VALID,46,VALID,0.342578,
2013-01-03, 03:49:04,VALID,1008.88,VALID,0,VALID,104,VALID,0,VALID,23.6745,VALID,46,VALID,0,
2013-01-03, 03:50:04,VALID,1008.86,VALID,0,VALID,104,VALID,0,VALID,23.6745,VALID,46,VALID,0,
2013-01-03, 03:51:04,VALID,1008.86,VALID,0,VALID,104,VALID,0.112112,VALID,23.733,VALID,46,VALID,0,
2013-01-03, 03:52:04,VALID,1008.87,VALID,0,VALID,104,VALID,0,VALID,23.655,VALID,46,VALID,0,
2013-01-03, 03:53:04,VALID,1008.89,VALID,0,VALID,104,VALID,0,VALID,23.733,VALID,46,VALID,0,
2013-01-03, 03:54:04,VALID,1008.88,VALID,0,VALID,104,VALID,0.112112,VALID,23.6922,VALID,46,VALID,0.0796875,